EUTELSAT 172B (42741 NORAD) Tracking and Keplerian Element Data

This shows tracking and keplerian element data for the satellite.

Feedback or suggestion? Click here.




ElementValue
Catalog42741
NameEUTELSAT 172B
Epoch Orbit2873
Epoch Day34.56502943
Epoch Year2025
RAAN155.3587
Inclination0.012
Eccentricity1.93E-05
Argument of Perigee80.1824
Mean Anonmoly273.8201
Mean Motion1.00271297
Decay Rate-2E-08
L11 42741U 17029B 25034.56502943 -.00000002 00000+0 00000+0 0 9996
L22 42741 0.0120 155.3587 0000193 80.1824 273.8201 1.00271297 28735



Live tracking and technical data element details for EUTELSAT 172B (NORAD 42741). EUTELSAT 172B can be tracked NOW for your location showing map with azimuth and elevation plus other details from your city location.







IsCatalogInMostPopularTable: catalog: 42741, numindb: 666
Update: records affected: 1



GetName: 42741 EUTELSAT 172B

Hit Count: updated at: Wed, 30 Apr 2025 16:38:18 GMT